Weather History for Portoroz, Slovenia

Change the Weather History Date:

Tuesday, October 30, 2012

  Actual Average (LIVT) Record (LIVT)
Temperature  
Mean Temperature 44 °F -  
Max Temperature 55 °F 61 °F 71 °F (2006)
Min Temperature 32 °F 52 °F 39 °F (1997)
Degree Days  
Heating Degree Days 22    
Moisture  
Dew Point 35 °F    
Average Humidity 73    
Maximum Humidity 93    
Minimum Humidity 51    
Precipitation  
Precipitation 0.00 in - - ()
Sea Level Pressure  
Sea Level Pressure 29.90 in    
Wind  
Wind Speed 7 mph ()    
Max Wind Speed 14 mph    
Max Gust Speed -    
Visibility 6.2 miles    
Events      
Averages and records for this station are not official NWS values.
T = Trace of Precipitation, MM = Missing Value Source: Averaged Metar Reports

Daily Weather History Graph

Daily Weather History Graph

Search for Another Location

Airport:

Trip Planner

Search our weather history database for the weather conditions in past years. The results will help you decide how hot, cold, wet, or windy it might be!

Date:

Astronomy

Oct. 30, 2012 Rise Set
Actual Time 6:42 AM CET 4:55 PM CET
Civil Twilight 6:11 AM CET 5:25 PM CET
Nautical Twilight 5:36 AM CET 6:00 PM CET
Astronomical Twilight 5:02 AM CET 6:35 PM CET
Moon 5:09 PM CET (10/30) 7:16 AM CET (10/30)
Length of Visible Light 11h 14m
Length of Day
10h 12m
Full, 100% of the Moon is Illuminated
Oct 30
Full
Nov 7
Last Quarter
Nov 13
New
Nov 20
First Quarter
Nov 28
Full

Hourly Weather History & Observations

Time (CET) Temp. Windchill Dew Point Humidity Pressure Visibility Wind Dir Wind Speed Gust Speed Precip Events Conditions
12:00 AM 41.0 °F 36.4 °F 26.6 °F 57% 29.92 in 6.2 mi ESE 6.9 mph - N/A   Unknown
12:30 AM 37.4 °F 33.8 °F 26.6 °F 65% 29.92 in 6.2 mi SE 4.6 mph - N/A   Unknown
1:00 AM 35.6 °F 30.7 °F 28.4 °F 75% 29.92 in 6.2 mi SE 5.8 mph - N/A   Unknown
1:30 AM 37.4 °F 31.4 °F 28.4 °F 70% 29.92 in 6.2 mi ESE 8.1 mph - N/A   Unknown
2:00 AM 37.4 °F 31.4 °F 28.4 °F 70% 29.92 in 6.2 mi ESE 8.1 mph - N/A   Unknown
2:30 AM 37.4 °F 30.8 °F 26.6 °F 65% 29.89 in 6.2 mi ESE 9.2 mph - N/A   Unknown
3:00 AM 35.6 °F 27.1 °F 26.6 °F 70% 29.89 in 6.2 mi ESE 12.7 mph - N/A   Unknown
3:30 AM 35.6 °F 27.5 °F 28.4 °F 75% 29.89 in 6.2 mi ESE 11.5 mph - N/A   Unknown
4:00 AM 33.8 °F 26.4 °F 28.4 °F 81% 29.89 in 6.2 mi ESE 9.2 mph - N/A   Unknown
4:30 AM 33.8 °F 25.8 °F 28.4 °F 81% 29.89 in 6.2 mi ESE 10.4 mph - N/A   Unknown
5:00 AM 33.8 °F 24.3 °F 28.4 °F 81% 29.89 in 6.2 mi ESE 13.8 mph - N/A   Unknown
5:30 AM 33.8 °F 24.8 °F 28.4 °F 81% 29.89 in 6.2 mi ESE 12.7 mph - N/A   Unknown
6:00 AM 32.0 °F 23.6 °F 28.4 °F 87% 29.89 in - ESE 10.4 mph - N/A   Clear
6:30 AM 32.0 °F 23.6 °F 28.4 °F 87% 29.89 in - ESE 10.4 mph - N/A   Clear
7:00 AM 32.0 °F 22.1 °F 28.4 °F 87% 29.92 in - ESE 13.8 mph - N/A   Clear
7:30 AM 33.8 °F 24.8 °F 28.4 °F 81% 29.92 in 6.2 mi ESE 12.7 mph - N/A   Partly Cloudy
8:00 AM 35.6 °F 27.5 °F 30.2 °F 81% 29.92 in 6.2 mi ESE 11.5 mph - N/A   Mostly Cloudy
8:30 AM 39.2 °F 32.5 °F 32.0 °F 75% 29.92 in 6.2 mi ESE 10.4 mph - N/A   Mostly Cloudy
9:00 AM 41.0 °F 36.4 °F 32.0 °F 70% 29.92 in 6.2 mi ESE 6.9 mph - N/A   Mostly Cloudy
9:30 AM 42.8 °F 38.0 °F 33.8 °F 70% 29.92 in 6.2 mi ESE 8.1 mph - N/A   Mostly Cloudy
10:00 AM 46.4 °F 44.3 °F 35.6 °F 66% 29.92 in 6.2 mi ESE 4.6 mph - N/A   Mostly Cloudy
10:30 AM 51.8 °F - 35.6 °F 54% 29.92 in 6.2 mi ESE 3.5 mph - N/A   Mostly Cloudy
11:00 AM 51.8 °F - 35.6 °F 54% 29.92 in 6.2 mi NE 1.2 mph - N/A   Mostly Cloudy
11:30 AM 51.8 °F - 35.6 °F 54% 29.89 in 6.2 mi Variable 2.3 mph - N/A   Mostly Cloudy
12:00 PM 53.6 °F - 35.6 °F 51% 29.89 in 6.2 mi SW 1.2 mph - N/A   Scattered Clouds
12:30 PM 53.6 °F - 37.4 °F 54% 29.89 in 6.2 mi NW 2.3 mph - N/A   Scattered Clouds
1:00 PM 53.6 °F - 37.4 °F 54% 29.89 in 6.2 mi WNW 3.5 mph - N/A   Mostly Cloudy
1:30 PM 53.6 °F - 37.4 °F 54% 29.89 in 6.2 mi NW 3.5 mph - N/A   Mostly Cloudy
2:00 PM 55.4 °F - 39.2 °F 54% 29.86 in 6.2 mi Variable 2.3 mph - N/A   Mostly Cloudy
2:30 PM 53.6 °F - 39.2 °F 58% 29.86 in 6.2 mi WNW 1.2 mph - N/A   Mostly Cloudy
3:00 PM 53.6 °F - 39.2 °F 58% 29.86 in 6.2 mi Variable 2.3 mph - N/A   Mostly Cloudy
3:30 PM 53.6 °F - 39.2 °F 58% 29.86 in 6.2 mi Variable 2.3 mph - N/A   Mostly Cloudy
4:00 PM 51.8 °F - 39.2 °F 62% 29.86 in 6.2 mi NNE 4.6 mph - N/A   Scattered Clouds
4:30 PM 51.8 °F - 39.2 °F 62% 29.86 in 6.2 mi Variable 2.3 mph - N/A   Scattered Clouds
5:00 PM 50.0 °F - 39.2 °F 66% 29.86 in 6.2 mi Calm Calm - N/A   Scattered Clouds
5:30 PM 48.2 °F - 41.0 °F 76% 29.86 in 6.2 mi Variable 1.2 mph - N/A   Scattered Clouds
6:00 PM 44.6 °F 42.2 °F 39.2 °F 81% 29.89 in 6.2 mi ESE 4.6 mph - N/A   Scattered Clouds
6:30 PM 42.8 °F 39.3 °F 39.2 °F 87% 29.89 in 6.2 mi ESE 5.8 mph - N/A   Mostly Cloudy
7:00 PM 42.8 °F 39.3 °F 39.2 °F 87% 29.89 in 6.2 mi ESE 5.8 mph - N/A   Mostly Cloudy
7:30 PM 44.6 °F 41.4 °F 41.0 °F 87% 29.89 in 6.2 mi ESE 5.8 mph - N/A   Mostly Cloudy
8:00 PM 44.6 °F 40.2 °F 41.0 °F 87% 29.89 in 6.2 mi ESE 8.1 mph - N/A   Mostly Cloudy
8:30 PM 44.6 °F 40.2 °F 41.0 °F 87% 29.92 in 6.2 mi ESE 8.1 mph - N/A   Mostly Cloudy
9:00 PM 44.6 °F 40.2 °F 41.0 °F 87% 29.92 in 6.2 mi ESE 8.1 mph - N/A   Mostly Cloudy
9:30 PM 44.6 °F 40.2 °F 42.8 °F 93% 29.92 in 6.2 mi ESE 8.1 mph - N/A   Mostly Cloudy
10:00 PM 44.6 °F 40.7 °F 42.8 °F 93% 29.92 in 6.2 mi ESE 6.9 mph - N/A   Mostly Cloudy
10:30 PM 46.4 °F 42.9 °F 42.8 °F 87% 29.89 in 6.2 mi ESE 6.9 mph - N/A   Mostly Cloudy
11:00 PM 46.4 °F 43.5 °F 42.8 °F 87% 29.89 in 6.2 mi ESE 5.8 mph - N/A   Mostly Cloudy
11:30 PM 46.4 °F 45.2 °F 42.8 °F 87% 29.89 in 6.2 mi Variable 3.5 mph - N/A   Overcast